Tracking 23726 objects as of 22-Sep-2021
HD Live streaming from Space Station
objects crossing your sky now

NOAA 16 DEB

Track NOAA 16 DEB now!
10-day predictions


NORAD ID: 42349
Int'l Code: 2000-055QR
Perigee: 854.4 km
Apogee: 867.2 km
Inclination: 98.8 °
Period: 102.0 minutes
Semi major axis: 7231 km
RCS: Unknown
Launch date: September 21, 2000
Source: United States (US)
Launch site: AIR FORCE WESTERN TEST RANGE (AFWTR)

Note: This is SATELLITE DEBRIS
aabbcc
Your satellite tracking list
Your tracking list is empty




NASA's NSSDC Master Catalog

Two Line Element Set (TLE):
1 42349U 00055QR  21265.43954624  .00000612  00000-0  36018-3 0  9995
2 42349  98.7873 331.1975 0008851  30.7375 329.4313 14.11674116282326
Source of the keplerian elements: AFSPC